• In Kazakhstan
  • List of Countries
  • For 7 days
  • Water Temperature
  • Weather Map
  • News
  • Weather Widgets
  • user-avatar
    Login

    Hourly Weather Molepolole

    Today, 28 February, Friday

    Time Temperature Precipitation Wind Pressure Humidity
    00:00 +23°C° 0 mm 1 mps 663 mmHg 38%
    01:00 +23°C° 0 mm 1 mps 663 mmHg 41%
    02:00 +22°C° 0 mm 1 mps 663 mmHg 43%
    03:00 +22°C° 0 mm 1 mps 663 mmHg 44%
    04:00 +22°C° 0 mm 1 mps 663 mmHg 44%
    05:00 +21°C° 0 mm 1 mps 663 mmHg 45%
    06:00 +23°C° 0 mm 1 mps 664 mmHg 40%
    07:00 +24°C° 0 mm 2 mps 665 mmHg 36%
    08:00 +26°C° 0 mm 2 mps 665 mmHg 31%
    09:00 +28°C° 0 mm 3 mps 666 mmHg 28%
    10:00 +30°C° 0 mm 3 mps 666 mmHg 26%
    11:00 +33°C° 0 mm 4 mps 667 mmHg 23%
    12:00 +34°C° 0 mm 4 mps 666 mmHg 22%
    13:00 +35°C° 0 mm 4 mps 666 mmHg 21%
    14:00 +36°C° 0 mm 3 mps 665 mmHg 20%
    15:00 +35°C° 0 mm 3 mps 665 mmHg 20%
    16:00 +35°C° 0 mm 3 mps 664 mmHg 20%
    17:00 +35°C° 0 mm 2 mps 664 mmHg 20%
    18:00 +32°C° 0 mm 2 mps 664 mmHg 23%
    19:00 +30°C° 0 mm 2 mps 664 mmHg 25%
    20:00 +29°C° 0 mm 2 mps 664 mmHg 27%
    21:00 +28°C° 0 mm 3 mps 664 mmHg 30%
    22:00 +27°C° 0 mm 3 mps 665 mmHg 32%
    23:00 +27°C° 0 mm 4 mps 665 mmHg 35%

    Tomorrow, 29 February, Saturday

    Time Temperature Precipitation Wind Pressure Humidity
    00:00 +25°C° 0 mm 5 mps 665 mmHg 47%
    01:00 +22°C° 0 mm 7 mps 665 mmHg 59%
    02:00 +21°C° 0 mm 9 mps 665 mmHg 71%
    03:00 +20°C° 0 mm 8 mps 665 mmHg 71%
    04:00 +20°C° 0 mm 7 mps 665 mmHg 70%
    05:00 +19°C° 0 mm 6 mps 665 mmHg 70%
    06:00 +18°C° 0 mm 7 mps 666 mmHg 68%
    07:00 +18°C° 0 mm 7 mps 666 mmHg 67%
    08:00 +20°C° 0 mm 7 mps 667 mmHg 65%
    09:00 +21°C° 0 mm 7 mps 667 mmHg 60%
    10:00 +23°C° 0 mm 7 mps 667 mmHg 54%
    11:00 +26°C° 0 mm 7 mps 668 mmHg 49%
    12:00 +27°C° 0 mm 7 mps 667 mmHg 44%
    13:00 +29°C° 0 mm 7 mps 667 mmHg 40%
    14:00 +32°C° 0 mm 6 mps 667 mmHg 35%
    15:00 +30°C° 0 mm 6 mps 666 mmHg 36%
    16:00 +30°C° 0 mm 6 mps 666 mmHg 37%
    17:00 +30°C° 0 mm 6 mps 665 mmHg 38%
    18:00 +28°C° 0 mm 5 mps 665 mmHg 42%
    19:00 +26°C° 0 mm 5 mps 665 mmHg 47%
    20:00 +23°C° 0 mm 4 mps 665 mmHg 51%
    21:00 +23°C° 0 mm 5 mps 665 mmHg 52%
    22:00 +22°C° 0 mm 6 mps 666 mmHg 53%
    23:00 +22°C° 0 mm 6 mps 666 mmHg 54%

    Day after tomorrow, 1 March, Sunday

    Time Temperature Precipitation Wind Pressure Humidity
    00:00 +21°C° 0 mm 6 mps 666 mmHg 57%
    01:00 +20°C° 0 mm 6 mps 666 mmHg 60%
    02:00 +19°C° 0 mm 6 mps 665 mmHg 63%
    03:00 +19°C° 0 mm 5 mps 665 mmHg 67%
    04:00 +17°C° 0 mm 5 mps 665 mmHg 71%
    05:00 +17°C° 0 mm 4 mps 665 mmHg 75%
    06:00 +17°C° 0 mm 5 mps 666 mmHg 72%
    07:00 +17°C° 0 mm 5 mps 666 mmHg 70%
    08:00 +17°C° 0 mm 5 mps 667 mmHg 68%
    09:00 +20°C° 0 mm 5 mps 667 mmHg 63%
    10:00 +21°C° 0 mm 5 mps 667 mmHg 59%
    11:00 +22°C° 0 mm 5 mps 667 mmHg 54%
    12:00 +23°C° 0 mm 4 mps 667 mmHg 50%
    13:00 +26°C° 0 mm 4 mps 667 mmHg 45%
    14:00 +27°C° 0 mm 3 mps 667 mmHg 41%
    15:00 +26°C° 0.1 mm 4 mps 666 mmHg 46%
    16:00 +23°C° 0.1 mm 5 mps 665 mmHg 52%
    17:00 +21°C° 0.1 mm 6 mps 664 mmHg 57%
    18:00 +21°C° 0.3 mm 5 mps 664 mmHg 61%
    19:00 +20°C° 0.3 mm 5 mps 664 mmHg 64%
    20:00 +20°C° 0.3 mm 5 mps 664 mmHg 68%
    21:00 +20°C° 0.1 mm 4 mps 664 mmHg 67%
    22:00 +19°C° 0.1 mm 3 mps 665 mmHg 66%
    23:00 +19°C° 0.1 mm 2 mps 665 mmHg 66%

    2 March, Monday

    Time Temperature Precipitation Wind Pressure Humidity
    00:00 +19°C° 0 mm 2 mps 665 mmHg 69%
    01:00 +18°C° 0 mm 2 mps 664 mmHg 73%
    02:00 +17°C° 0 mm 2 mps 664 mmHg 77%
    03:00 +18°C° 0 mm 1 mps 664 mmHg 78%
    04:00 +18°C° 0 mm 1 mps 664 mmHg 79%
    05:00 +18°C° 0 mm 1 mps 664 mmHg 80%
    06:00 +19°C° 0 mm 1 mps 664 mmHg 75%
    07:00 +19°C° 0 mm 1 mps 665 mmHg 71%
    08:00 +20°C° 0 mm 1 mps 665 mmHg 67%
    09:00 +21°C° 0 mm 2 mps 666 mmHg 61%
    10:00 +24°C° 0 mm 3 mps 666 mmHg 54%
    11:00 +26°C° 0 mm 4 mps 666 mmHg 47%
    12:00 +27°C° 0 mm 3 mps 666 mmHg 43%
    13:00 +29°C° 0 mm 3 mps 666 mmHg 39%
    14:00 +30°C° 0 mm 2 mps 665 mmHg 34%
    15:00 +28°C° 0.1 mm 3 mps 665 mmHg 41%
    16:00 +27°C° 0.1 mm 3 mps 664 mmHg 47%
    17:00 +25°C° 0.1 mm 4 mps 663 mmHg 54%
    18:00 +23°C° 0.1 mm 4 mps 663 mmHg 57%
    19:00 +24°C° 0.1 mm 3 mps 664 mmHg 61%
    20:00 +22°C° 0.1 mm 3 mps 664 mmHg 64%
    21:00 +21°C° 0 mm 2 mps 664 mmHg 65%
    22:00 +22°C° 0 mm 1 mps 664 mmHg 66%
    23:00 +22°C° 0 mm 1 mps 664 mmHg 67%

    3 March, Tuesday

    Time Temperature Precipitation Wind Pressure Humidity
    00:00 +19°C° 0 mm 0 mps 664 mmHg 69%
    01:00 +18°C° 0 mm 0 mps 664 mmHg 71%
    02:00 +18°C° 0 mm 0 mps 664 mmHg 73%
    03:00 +17°C° 0 mm 0 mps 664 mmHg 73%
    04:00 +19°C° 0 mm 1 mps 664 mmHg 73%
    05:00 +19°C° 0 mm 1 mps 664 mmHg 74%
    06:00 +20°C° 0 mm 1 mps 665 mmHg 69%
    07:00 +21°C° 0 mm 2 mps 666 mmHg 63%
    08:00 +23°C° 0 mm 2 mps 666 mmHg 58%
    09:00 +25°C° 0 mm 2 mps 667 mmHg 51%
    10:00 +28°C° 0 mm 2 mps 667 mmHg 43%
    11:00 +30°C° 0 mm 2 mps 667 mmHg 35%
    12:00 +31°C° 0 mm 3 mps 667 mmHg 31%
    13:00 +33°C° 0 mm 3 mps 667 mmHg 28%
    14:00 +34°C° 0 mm 3 mps 667 mmHg 24%
    15:00 +34°C° 0 mm 4 mps 666 mmHg 24%
    16:00 +34°C° 0 mm 4 mps 666 mmHg 25%
    17:00 +33°C° 0 mm 4 mps 665 mmHg 26%
    18:00 +32°C° 0 mm 4 mps 665 mmHg 30%
    19:00 +29°C° 0 mm 4 mps 665 mmHg 34%
    20:00 +27°C° 0 mm 3 mps 666 mmHg 38%
    21:00 +26°C° 0 mm 3 mps 666 mmHg 41%
    22:00 +26°C° 0 mm 3 mps 666 mmHg 44%
    23:00 +25°C° 0 mm 3 mps 666 mmHg 46%

    4 March, Wednesday

    Time Temperature Precipitation Wind Pressure Humidity
    00:00 +23°C° 0 mm 4 mps 666 mmHg 50%
    01:00 +22°C° 0 mm 4 mps 666 mmHg 54%
    02:00 +22°C° 0 mm 4 mps 666 mmHg 58%
    03:00 +21°C° 0 mm 4 mps 666 mmHg 63%
    04:00 +20°C° 0 mm 3 mps 667 mmHg 68%
    05:00 +19°C° 0 mm 3 mps 667 mmHg 73%
    06:00 +20°C° 0 mm 4 mps 667 mmHg 72%
    07:00 +21°C° 0 mm 4 mps 668 mmHg 70%
    08:00 +21°C° 0 mm 5 mps 669 mmHg 69%
    09:00 +25°C° 0 mm 5 mps 669 mmHg 60%
    10:00 +27°C° 0 mm 5 mps 669 mmHg 51%
    11:00 +29°C° 0 mm 5 mps 670 mmHg 42%
    12:00 +32°C° 0 mm 5 mps 669 mmHg 37%
    13:00 +33°C° 0 mm 4 mps 669 mmHg 32%
    14:00 +34°C° 0 mm 4 mps 669 mmHg 27%
    15:00 +34°C° 0 mm 4 mps 668 mmHg 27%
    16:00 +34°C° 0 mm 5 mps 668 mmHg 27%
    17:00 +33°C° 0 mm 5 mps 667 mmHg 27%
    18:00 +30°C° 0 mm 4 mps 667 mmHg 31%
    19:00 +28°C° 0 mm 3 mps 667 mmHg 35%
    20:00 +26°C° 0 mm 3 mps 666 mmHg 39%
    21:00 +25°C° 0 mm 2 mps 667 mmHg 41%
    22:00 +25°C° 0 mm 1 mps 667 mmHg 44%
    23:00 +24°C° 0 mm 1 mps 667 mmHg 46%
    Show more